Location: Kershaw
(34.5481°N, 80.5823°W)
Time: 22:31:58
(UTC+00:00)

Vanguard 2 Rocket - Pass Details

Date: 02 October 2022
Orbit: 555 x 3321 km, 32.9° (Epoch: 28 November)

Event Time Altitude Azimuth Distance (km) Brightness Sun altitude
Exits shadow 09:33:19 33° 196° (SSW) 1,191 7.2 -22.2°
Drops below altitude 10° 09:36:45 10° 143° (SE) 1,946 8.9 -21.5°
Sets 09:38:54 0° 132° (SE) 2,752 9.9 -21.1°
